Time,TemperatureF,DewpointF,PressureIn,WindDirection,WindDirectionDegrees,WindSpeedMPH,WindSpeedGustMPH,Humidity,HourlyPrecipIn,Conditions,Clouds,dailyrainin,SoftwareType,DateUTC
2013-04-08 00:00:00,59.7,58.0,29.76,SW,225,0.0,4.0,94,0.00,,---,0.00,VWS V14.01,2013-04-08 05:00:00,
2013-04-08 00:05:00,59.7,58.0,29.76,South,180,3.8,7.2,94,0.00,,---,0.00,VWS V14.01,2013-04-08 05:05:00,
2013-04-08 00:10:00,59.7,58.0,29.76,SSW,202,2.5,8.5,94,0.00,,---,0.00,VWS V14.01,2013-04-08 05:10:00,
2013-04-08 00:15:00,59.7,58.0,29.76,SSE,158,1.3,3.1,94,0.00,,---,0.00,VWS V14.01,2013-04-08 05:15:00,
2013-04-08 00:21:00,59.9,58.2,29.76,South,180,4.0,7.4,94,0.00,,---,0.00,VWS V14.01,2013-04-08 05:21:00,
2013-04-08 00:26:00,59.9,58.2,29.76,SSW,202,4.0,4.7,94,0.00,,---,0.00,VWS V14.01,2013-04-08 05:26:00,
2013-04-08 00:31:00,59.9,58.2,29.76,South,180,0.9,7.4,94,0.00,,---,0.00,VWS V14.01,2013-04-08 05:31:00,
2013-04-08 00:36:00,59.9,58.2,29.76,SSW,202,3.1,3.6,94,0.00,,---,0.00,VWS V14.01,2013-04-08 05:36:00,
2013-04-08 00:41:00,59.9,58.2,29.76,South,180,4.9,5.8,94,0.00,,---,0.00,VWS V14.01,2013-04-08 05:41:00,
2013-04-08 00:46:00,59.7,58.0,29.76,SSW,202,2.7,7.6,94,0.00,,---,0.00,VWS V14.01,2013-04-08 05:46:00,
2013-04-08 00:52:00,59.7,58.0,29.76,SSW,202,2.5,5.4,94,0.00,,---,0.00,VWS V14.01,2013-04-08 05:52:00,
2013-04-08 00:57:00,59.7,58.0,29.76,SSW,202,4.3,6.5,94,0.00,,---,0.00,VWS V14.01,2013-04-08 05:57:00,
2013-04-08 01:04:00,59.7,58.0,29.76,South,180,5.4,8.5,94,0.00,,---,0.00,VWS V14.01,2013-04-08 06:04:00,
2013-04-08 01:09:00,59.7,58.0,29.76,South,180,2.7,4.7,94,0.00,,---,0.00,VWS V14.01,2013-04-08 06:09:00,
2013-04-08 01:14:00,59.9,58.2,29.76,SSW,202,3.6,6.5,94,0.00,,---,0.00,VWS V14.01,2013-04-08 06:14:00,
2013-04-08 01:20:00,59.7,58.0,29.76,SSW,202,2.9,5.6,94,0.00,,---,0.00,VWS V14.01,2013-04-08 06:20:00,
2013-04-08 01:25:00,59.7,58.0,29.76,SSW,202,3.6,4.0,94,0.00,,---,0.00,VWS V14.01,2013-04-08 06:25:00,
2013-04-08 01:31:00,59.7,58.0,29.74,South,180,2.9,2.9,94,0.00,,---,0.00,VWS V14.01,2013-04-08 06:31:00,
2013-04-08 01:37:00,59.7,58.0,29.74,SSW,202,1.1,4.3,94,0.00,,---,0.00,VWS V14.01,2013-04-08 06:37:00,
2013-04-08 01:42:00,59.9,58.2,29.74,SSW,202,3.4,4.0,94,0.00,,---,0.00,VWS V14.01,2013-04-08 06:42:00,
2013-04-08 01:47:00,59.9,58.2,29.74,SSE,158,2.5,5.4,94,0.00,,---,0.00,VWS V14.01,2013-04-08 06:47:00,
2013-04-08 01:52:00,59.7,58.0,29.74,SSW,202,3.1,3.6,94,0.00,,---,0.00,VWS V14.01,2013-04-08 06:52:00,
2013-04-08 01:57:00,59.7,58.0,29.74,SSW,202,4.9,5.8,94,0.00,,---,0.00,VWS V14.01,2013-04-08 06:57:00,
2013-04-08 02:04:00,59.7,58.0,29.74,South,180,0.0,3.8,94,0.00,,---,0.00,VWS V14.01,2013-04-08 07:04:00,
2013-04-08 02:09:00,59.7,58.3,29.74,South,180,4.7,4.9,95,0.00,,---,0.00,VWS V14.01,2013-04-08 07:09:00,
2013-04-08 02:14:00,59.7,58.3,29.74,SSE,158,3.6,4.3,95,0.00,,---,0.00,VWS V14.01,2013-04-08 07:14:00,
2013-04-08 02:19:00,59.9,58.5,29.74,SW,225,2.7,8.1,95,0.00,,---,0.00,VWS V14.01,2013-04-08 07:19:00,
2013-04-08 02:24:00,59.9,58.5,29.74,SSE,158,2.7,3.6,95,0.00,,---,0.00,VWS V14.01,2013-04-08 07:24:00,
2013-04-08 02:29:00,60.1,58.3,29.71,SSE,158,3.1,7.6,94,0.00,,---,0.00,VWS V14.01,2013-04-08 07:29:00,
2013-04-08 02:34:00,59.9,58.2,29.71,South,180,1.1,4.0,94,0.00,,---,0.00,VWS V14.01,2013-04-08 07:34:00,
2013-04-08 02:40:00,59.9,58.2,29.71,SSW,202,3.6,4.9,94,0.00,,---,0.00,VWS V14.01,2013-04-08 07:40:00,
2013-04-08 02:45:00,59.9,58.2,29.74,South,180,2.7,3.1,94,0.00,,---,0.00,VWS V14.01,2013-04-08 07:45:00,
2013-04-08 02:50:00,59.7,58.0,29.74,SSW,202,2.9,2.9,94,0.00,,---,0.00,VWS V14.01,2013-04-08 07:50:00,
2013-04-08 02:55:00,59.7,58.0,29.74,SSW,202,3.1,5.6,94,0.00,,---,0.00,VWS V14.01,2013-04-08 07:55:00,
2013-04-08 03:00:00,59.7,58.3,29.74,South,180,0.0,1.1,95,0.00,,---,0.00,VWS V14.01,2013-04-08 08:00:00,
2013-04-08 03:06:00,59.9,58.5,29.74,SSW,202,0.0,2.7,95,0.00,,---,0.00,VWS V14.01,2013-04-08 08:06:00,
2013-04-08 03:11:00,59.9,58.5,29.74,South,180,0.0,0.0,95,0.00,,---,0.00,VWS V14.01,2013-04-08 08:11:00,
2013-04-08 03:16:00,59.9,58.2,29.74,SSW,202,3.1,3.1,94,0.00,,---,0.00,VWS V14.01,2013-04-08 08:16:00,
2013-04-08 03:22:00,59.9,58.2,29.74,SSE,158,2.0,3.1,94,0.00,,---,0.00,VWS V14.01,2013-04-08 08:22:00,
2013-04-08 03:27:00,59.9,58.2,29.74,SSE,158,5.4,6.5,94,0.00,,---,0.00,VWS V14.01,2013-04-08 08:27:00,
2013-04-08 03:34:00,59.9,58.2,29.74,South,180,6.5,6.5,94,0.00,,---,0.00,VWS V14.01,2013-04-08 08:34:00,
2013-04-08 03:40:00,59.7,58.0,29.74,SE,135,3.1,6.5,94,0.00,,---,0.00,VWS V14.01,2013-04-08 08:40:00,
2013-04-08 03:45:00,59.7,58.3,29.74,SSE,158,7.4,7.4,95,0.00,,---,0.00,VWS V14.01,2013-04-08 08:45:00,
2013-04-08 03:51:00,59.7,58.3,29.74,SSE,158,4.3,4.3,95,0.00,,---,0.00,VWS V14.01,2013-04-08 08:51:00,
2013-04-08 03:56:00,59.7,58.3,29.74,South,180,3.4,4.5,95,0.00,,---,0.00,VWS V14.01,2013-04-08 08:56:00,
2013-04-08 04:02:00,59.7,58.3,29.74,South,180,5.4,5.4,95,0.00,,---,0.00,VWS V14.01,2013-04-08 09:02:00,
2013-04-08 04:07:00,59.7,58.3,29.74,SSE,158,3.1,6.0,95,0.00,,---,0.00,VWS V14.01,2013-04-08 09:07:00,
2013-04-08 04:12:00,59.7,58.3,29.71,SSE,158,2.2,6.3,95,0.00,,---,0.00,VWS V14.01,2013-04-08 09:12:00,
2013-04-08 04:17:00,59.7,58.3,29.71,South,180,6.0,6.0,95,0.00,,---,0.00,VWS V14.01,2013-04-08 09:17:00,
2013-04-08 04:23:00,59.7,58.0,29.71,SSE,158,2.7,3.8,94,0.00,,---,0.00,VWS V14.01,2013-04-08 09:23:00,
2013-04-08 04:29:00,59.7,58.0,29.68,SSE,158,4.0,8.7,94,0.00,,---,0.00,VWS V14.01,2013-04-08 09:29:00,
2013-04-08 04:35:00,59.7,58.0,29.68,SSE,158,3.4,5.8,94,0.00,,---,0.00,VWS V14.01,2013-04-08 09:35:00,
2013-04-08 04:40:00,59.5,57.8,29.68,SSW,202,2.5,4.5,94,0.00,,---,0.00,VWS V14.01,2013-04-08 09:40:00,
2013-04-08 04:46:00,59.4,57.6,29.68,South,180,2.7,6.3,94,0.00,,---,0.00,VWS V14.01,2013-04-08 09:46:00,
2013-04-08 04:52:00,59.4,57.6,29.68,South,180,2.9,2.9,94,0.00,,---,0.00,VWS V14.01,2013-04-08 09:52:00,
2013-04-08 04:57:00,59.4,57.9,29.68,SSE,158,1.3,2.9,95,0.00,,---,0.00,VWS V14.01,2013-04-08 09:57:00,
2013-04-08 05:02:00,59.5,58.1,29.68,South,180,0.0,5.6,95,0.00,,---,0.00,VWS V14.01,2013-04-08 10:02:00,
2013-04-08 05:09:00,59.5,57.8,29.68,SSW,202,2.0,2.0,94,0.00,,---,0.00,VWS V14.01,2013-04-08 10:09:00,
2013-04-08 05:15:00,59.7,58.0,29.71,WSW,248,0.0,1.1,94,0.00,,---,0.00,VWS V14.01,2013-04-08 10:15:00,
2013-04-08 05:20:00,59.7,58.0,29.71,NW,315,0.0,0.0,94,0.00,,---,0.00,VWS V14.01,2013-04-08 10:20:00,
2013-04-08 05:27:00,59.7,58.0,29.71,North,0,0.0,2.0,94,0.00,,---,0.00,VWS V14.01,2013-04-08 10:27:00,
2013-04-08 05:32:00,59.7,58.0,29.71,NE,45,1.6,1.6,94,0.00,,---,0.00,VWS V14.01,2013-04-08 10:32:00,
2013-04-08 05:38:00,59.7,58.0,29.71,NE,45,0.0,0.0,94,0.00,,---,0.00,VWS V14.01,2013-04-08 10:38:00,
2013-04-08 05:44:00,59.7,58.0,29.74,ENE,68,0.0,0.0,94,0.00,,---,0.00,VWS V14.01,2013-04-08 10:44:00,
2013-04-08 05:50:00,59.7,57.7,29.74,ENE,68,0.0,0.0,93,0.00,,---,0.00,VWS V14.01,2013-04-08 10:50:00,
2013-04-08 05:55:00,59.7,57.7,29.74,ENE,68,0.0,0.0,93,0.00,,---,0.00,VWS V14.01,2013-04-08 10:55:00,
2013-04-08 06:00:00,59.9,57.9,29.74,ESE,112,0.0,0.0,93,0.00,,---,0.00,VWS V14.01,2013-04-08 11:00:00,
2013-04-08 06:05:00,59.9,57.9,29.74,SE,135,0.0,1.6,93,0.00,,---,0.00,VWS V14.01,2013-04-08 11:05:00,
2013-04-08 06:11:00,60.1,58.0,29.74,ESE,112,0.0,2.5,93,0.00,,---,0.00,VWS V14.01,2013-04-08 11:11:00,
2013-04-08 06:16:00,60.1,58.0,29.74,East,90,0.0,0.9,93,0.00,,---,0.00,VWS V14.01,2013-04-08 11:16:00,
2013-04-08 06:22:00,60.1,58.0,29.74,ESE,112,1.3,2.9,93,0.00,,---,0.00,VWS V14.01,2013-04-08 11:22:00,
2013-04-08 06:27:00,60.3,58.2,29.74,SE,135,2.7,2.7,93,0.00,,---,0.00,VWS V14.01,2013-04-08 11:27:00,
2013-04-08 06:32:00,60.4,58.4,29.74,SE,135,0.0,6.0,93,0.00,,---,0.00,VWS V14.01,2013-04-08 11:32:00,
2013-04-08 06:38:00,60.4,58.4,29.74,SSE,158,4.0,4.5,93,0.00,,---,0.00,VWS V14.01,2013-04-08 11:38:00,
2013-04-08 06:44:00,60.4,58.1,29.74,SE,135,3.4,3.8,92,0.00,,---,0.00,VWS V14.01,2013-04-08 11:44:00,
2013-04-08 06:49:00,60.6,58.3,29.74,SE,135,5.4,5.4,92,0.00,,---,0.00,VWS V14.01,2013-04-08 11:49:00,
2013-04-08 06:54:00,60.6,58.3,29.74,SSE,158,2.7,4.3,92,0.00,,---,0.00,VWS V14.01,2013-04-08 11:54:00,
2013-04-08 06:59:00,60.6,58.3,29.74,SSE,158,2.2,5.4,92,0.00,,---,0.00,VWS V14.01,2013-04-08 11:59:00,
2013-04-08 07:04:00,60.6,58.3,29.74,SSE,158,3.1,4.0,92,0.00,,---,0.00,VWS V14.01,2013-04-08 12:04:00,
2013-04-08 07:09:00,60.8,58.2,29.74,SSE,158,2.7,5.6,91,0.00,,---,0.00,VWS V14.01,2013-04-08 12:09:00,
2013-04-08 07:15:00,60.8,58.2,29.74,SSE,158,6.0,6.0,91,0.00,,---,0.00,VWS V14.01,2013-04-08 12:15:00,
2013-04-08 07:20:00,61.0,58.3,29.74,SSW,202,2.7,8.7,91,0.00,,---,0.00,VWS V14.01,2013-04-08 12:20:00,
2013-04-08 07:25:00,61.0,58.3,29.74,ESE,112,3.6,3.6,91,0.00,,---,0.00,VWS V14.01,2013-04-08 12:25:00,
2013-04-08 07:31:00,61.2,58.2,29.74,SSE,158,0.9,3.4,90,0.00,,---,0.00,VWS V14.01,2013-04-08 12:31:00,
2013-04-08 07:37:00,61.2,58.2,29.74,SE,135,3.6,5.6,90,0.00,,---,0.00,VWS V14.01,2013-04-08 12:37:00,
2013-04-08 07:42:00,61.2,58.2,29.74,SE,135,2.0,6.5,90,0.00,,---,0.00,VWS V14.01,2013-04-08 12:42:00,
2013-04-08 07:47:00,61.2,58.2,29.74,SE,135,5.6,5.8,90,0.00,,---,0.00,VWS V14.01,2013-04-08 12:47:00,
2013-04-08 07:54:00,61.2,58.2,29.74,SE,135,0.0,8.7,90,0.00,,---,0.00,VWS V14.01,2013-04-08 12:54:00,
2013-04-08 07:59:00,61.3,58.4,29.74,SSE,158,0.0,6.5,90,0.00,,---,0.00,VWS V14.01,2013-04-08 12:59:00,
2013-04-08 08:05:00,61.3,58.1,29.74,SE,135,6.3,10.7,89,0.00,,---,0.00,VWS V14.01,2013-04-08 13:05:00,
2013-04-08 08:10:00,61.5,58.2,29.74,South,180,6.5,9.6,89,0.00,,---,0.00,VWS V14.01,2013-04-08 13:10:00,
2013-04-08 08:15:00,61.5,58.2,29.74,ESE,112,2.0,9.8,89,0.00,,---,0.00,VWS V14.01,2013-04-08 13:15:00,
2013-04-08 08:21:00,61.7,58.4,29.74,South,180,7.6,8.5,89,0.00,,---,0.00,VWS V14.01,2013-04-08 13:21:00,
2013-04-08 08:26:00,61.7,58.4,29.74,East,90,5.4,9.4,89,0.00,,---,0.00,VWS V14.01,2013-04-08 13:26:00,
2013-04-08 08:31:00,61.9,58.6,29.74,ESE,112,2.7,8.5,89,0.00,,---,0.00,VWS V14.01,2013-04-08 13:31:00,
2013-04-08 08:36:00,62.1,58.8,29.74,SE,135,2.0,3.1,89,0.00,,---,0.00,VWS V14.01,2013-04-08 13:36:00,
2013-04-08 08:42:00,62.2,58.7,29.74,SE,135,0.0,0.0,88,0.00,,---,0.00,VWS V14.01,2013-04-08 13:42:00,
2013-04-08 08:48:00,62.6,58.7,29.74,SSE,158,0.0,0.0,87,0.00,,---,0.00,VWS V14.01,2013-04-08 13:48:00,
2013-04-08 08:54:00,62.8,58.5,29.74,SSE,158,0.0,0.0,86,0.00,,---,0.00,VWS V14.01,2013-04-08 13:54:00,
2013-04-08 09:00:00,62.8,58.5,29.71,SSE,158,0.0,0.0,86,0.00,,---,0.00,VWS V14.01,2013-04-08 14:00:00,
2013-04-08 09:06:00,62.8,58.5,29.71,SE,135,0.0,0.0,86,0.00,,---,0.00,VWS V14.01,2013-04-08 14:06:00,
2013-04-08 09:12:00,63.0,58.7,29.74,South,180,0.0,0.0,86,0.00,,---,0.00,VWS V14.01,2013-04-08 14:12:00,
2013-04-08 09:17:00,63.0,58.7,29.74,East,90,0.0,0.0,86,0.00,,---,0.00,VWS V14.01,2013-04-08 14:17:00,
2013-04-08 09:22:00,63.1,58.6,29.74,ESE,112,0.0,0.0,85,0.00,,---,0.00,VWS V14.01,2013-04-08 14:22:00,
2013-04-08 09:28:00,63.5,58.9,29.74,SSE,158,0.0,0.0,85,0.00,,---,0.00,VWS V14.01,2013-04-08 14:28:00,
2013-04-08 09:33:00,63.5,58.9,29.74,SE,135,0.0,0.0,85,0.00,,---,0.00,VWS V14.01,2013-04-08 14:33:00,
2013-04-08 09:40:00,63.9,58.9,29.74,NE,45,0.0,0.0,84,0.00,,---,0.00,VWS V14.01,2013-04-08 14:40:00,
2013-04-08 09:46:00,64.4,59.1,29.74,SE,135,0.0,0.0,83,0.00,,---,0.00,VWS V14.01,2013-04-08 14:46:00,
2013-04-08 09:51:00,64.9,59.3,29.74,SSE,158,0.0,0.0,82,0.00,,---,0.00,VWS V14.01,2013-04-08 14:51:00,
2013-04-08 09:57:00,65.1,59.2,29.71,South,180,0.0,0.0,81,0.00,,---,0.00,VWS V14.01,2013-04-08 14:57:00,
2013-04-08 10:03:00,65.5,59.5,29.71,SSE,158,0.0,0.0,81,0.00,,---,0.00,VWS V14.01,2013-04-08 15:03:00,
2013-04-08 10:08:00,66.2,59.9,29.71,SE,135,2.0,8.1,80,0.00,,---,0.00,VWS V14.01,2013-04-08 15:08:00,
2013-04-08 10:14:00,66.2,59.9,29.74,SSE,158,5.4,5.8,80,0.00,,---,0.00,VWS V14.01,2013-04-08 15:14:00,
2013-04-08 10:21:00,66.4,59.7,29.74,SSW,202,2.7,9.6,79,0.00,,---,0.00,VWS V14.01,2013-04-08 15:21:00,
2013-04-08 10:27:00,66.4,59.7,29.74,SSE,158,10.3,10.3,79,0.00,,---,0.00,VWS V14.01,2013-04-08 15:27:00,
2013-04-08 10:32:00,66.4,59.7,29.74,ENE,68,5.4,12.8,79,0.00,,---,0.00,VWS V14.01,2013-04-08 15:32:00,
2013-04-08 10:38:00,66.9,60.2,29.74,South,180,8.1,8.1,79,0.00,,---,0.00,VWS V14.01,2013-04-08 15:38:00,
2013-04-08 10:43:00,68.0,60.5,29.74,SSW,202,8.1,8.1,77,0.00,,---,0.00,VWS V14.01,2013-04-08 15:43:00,
2013-04-08 10:48:00,68.7,60.1,29.74,SSE,158,5.6,16.6,74,0.00,,---,0.00,VWS V14.01,2013-04-08 15:48:00,
2013-04-08 10:56:00,68.7,60.1,29.74,South,180,3.6,10.7,74,0.00,,---,0.00,VWS V14.01,2013-04-08 15:56:00,
2013-04-08 11:01:00,69.3,59.5,29.74,South,180,10.1,12.1,71,0.00,,---,0.00,VWS V14.01,2013-04-08 16:01:00,
2013-04-08 11:07:00,69.3,59.9,29.74,SSW,202,10.3,10.3,72,0.00,,---,0.00,VWS V14.01,2013-04-08 16:07:00,
2013-04-08 11:12:00,70.3,60.5,29.74,SSE,158,4.0,10.7,71,0.00,,---,0.00,VWS V14.01,2013-04-08 16:12:00,
2013-04-08 11:18:00,71.1,60.4,29.74,South,180,5.6,7.6,69,0.00,,---,0.00,VWS V14.01,2013-04-08 16:18:00,
2013-04-08 11:25:00,70.9,60.2,29.74,SE,135,8.1,8.5,69,0.00,,---,0.00,VWS V14.01,2013-04-08 16:25:00,
2013-04-08 11:31:00,71.4,60.3,29.74,South,180,6.0,10.1,68,0.00,,---,0.00,VWS V14.01,2013-04-08 16:31:00,
2013-04-08 11:37:00,71.8,59.8,29.74,SSW,202,6.0,10.5,66,0.00,,---,0.00,VWS V14.01,2013-04-08 16:37:00,
2013-04-08 11:43:00,71.8,59.8,29.74,SSW,202,5.4,10.3,66,0.00,,---,0.00,VWS V14.01,2013-04-08 16:43:00,
2013-04-08 11:49:00,72.7,60.2,29.74,SSE,158,6.5,10.1,65,0.00,,---,0.00,VWS V14.01,2013-04-08 16:49:00,
2013-04-08 11:56:00,72.9,60.4,29.74,South,180,8.5,8.5,65,0.00,,---,0.00,VWS V14.01,2013-04-08 16:56:00,
2013-04-08 12:02:00,72.7,59.8,29.74,SSE,158,15.2,15.2,64,0.00,,---,0.00,VWS V14.01,2013-04-08 17:02:00,
2013-04-08 12:07:00,71.6,59.7,29.74,SSE,158,3.1,8.7,66,0.00,,---,0.00,VWS V14.01,2013-04-08 17:07:00,
2013-04-08 12:13:00,71.1,59.6,29.76,South,180,2.9,9.4,67,0.00,,---,0.00,VWS V14.01,2013-04-08 17:13:00,
2013-04-08 12:19:00,71.2,60.2,29.76,SSE,158,7.4,8.5,68,0.00,,---,0.00,VWS V14.01,2013-04-08 17:19:00,
2013-04-08 12:24:00,71.4,60.3,29.76,South,180,6.0,8.7,68,0.00,,---,0.00,VWS V14.01,2013-04-08 17:24:00,
2013-04-08 12:30:00,71.8,60.2,29.74,SE,135,6.9,7.4,67,0.00,,---,0.00,VWS V14.01,2013-04-08 17:30:00,
2013-04-08 12:35:00,71.2,59.7,29.74,South,180,8.7,11.0,67,0.00,,---,0.00,VWS V14.01,2013-04-08 17:35:00,
2013-04-08 12:41:00,70.7,59.2,29.74,South,180,3.8,4.9,67,0.00,,---,0.00,VWS V14.01,2013-04-08 17:41:00,
2013-04-08 12:48:00,70.9,59.4,29.74,SSW,202,7.6,7.6,67,0.00,,---,0.00,VWS V14.01,2013-04-08 17:48:00,
2013-04-08 12:54:00,71.6,59.7,29.74,SE,135,16.6,16.6,66,0.00,,---,0.00,VWS V14.01,2013-04-08 17:54:00,
2013-04-08 12:59:00,72.1,59.7,29.74,South,180,2.9,4.0,65,0.00,,---,0.00,VWS V14.01,2013-04-08 17:59:00,
2013-04-08 13:05:00,72.7,59.4,29.74,South,180,9.0,9.0,63,0.00,,---,0.00,VWS V14.01,2013-04-08 18:05:00,
2013-04-08 13:10:00,73.2,59.4,29.74,South,180,9.8,9.8,62,0.00,,---,0.00,VWS V14.01,2013-04-08 18:10:00,
2013-04-08 13:16:00,72.5,59.2,29.74,SE,135,9.0,10.7,63,0.00,,---,0.00,VWS V14.01,2013-04-08 18:16:00,
2013-04-08 13:22:00,72.7,58.0,29.74,South,180,5.6,8.5,60,0.00,,---,0.00,VWS V14.01,2013-04-08 18:22:00,
2013-04-08 13:27:00,72.9,58.2,29.71,SSW,202,7.6,8.7,60,0.00,,---,0.00,VWS V14.01,2013-04-08 18:27:00,
2013-04-08 13:33:00,73.4,58.7,29.71,SSW,202,5.8,5.8,60,0.00,,---,0.00,VWS V14.01,2013-04-08 18:33:00,
2013-04-08 13:38:00,74.1,59.4,29.71,South,180,5.6,8.7,60,0.00,,---,0.00,VWS V14.01,2013-04-08 18:38:00,
2013-04-08 13:44:00,73.6,58.4,29.71,SSE,158,6.0,13.0,59,0.00,,---,0.00,VWS V14.01,2013-04-08 18:44:00,
2013-04-08 13:49:00,73.0,57.9,29.71,SSW,202,6.3,8.7,59,0.00,,---,0.00,VWS V14.01,2013-04-08 18:49:00,
2013-04-08 13:55:00,73.6,57.9,29.71,South,180,9.6,10.1,58,0.00,,---,0.00,VWS V14.01,2013-04-08 18:55:00,
2013-04-08 14:00:00,73.0,56.9,29.71,South,180,11.2,12.3,57,0.00,,---,0.00,VWS V14.01,2013-04-08 19:00:00,
2013-04-08 14:06:00,74.3,58.6,29.71,South,180,3.6,11.2,58,0.00,,---,0.00,VWS V14.01,2013-04-08 19:06:00,
2013-04-08 14:12:00,74.3,58.1,29.68,South,180,4.0,6.0,57,0.00,,---,0.00,VWS V14.01,2013-04-08 19:12:00,
2013-04-08 14:17:00,74.7,57.9,29.68,SSW,202,4.3,6.7,56,0.00,,---,0.00,VWS V14.01,2013-04-08 19:17:00,
2013-04-08 14:23:00,73.9,57.3,29.68,South,180,8.7,8.7,56,0.00,,---,0.00,VWS V14.01,2013-04-08 19:23:00,
2013-04-08 14:29:00,74.3,58.1,29.71,SSW,202,5.4,10.3,57,0.00,,---,0.00,VWS V14.01,2013-04-08 19:29:00,
2013-04-08 14:34:00,74.5,57.3,29.71,SSW,202,7.6,9.8,55,0.00,,---,0.00,VWS V14.01,2013-04-08 19:34:00,
2013-04-08 14:40:00,74.3,57.6,29.71,South,180,6.0,8.5,56,0.00,,---,0.00,VWS V14.01,2013-04-08 19:40:00,
2013-04-08 14:45:00,74.5,57.3,29.68,SSW,202,1.3,8.7,55,0.00,,---,0.00,VWS V14.01,2013-04-08 19:45:00,
2013-04-08 14:51:00,73.6,56.9,29.68,SSW,202,8.5,11.4,56,0.00,,---,0.00,VWS V14.01,2013-04-08 19:51:00,
2013-04-08 14:56:00,73.6,57.9,29.68,SW,225,4.3,9.4,58,0.00,,---,0.00,VWS V14.01,2013-04-08 19:56:00,
2013-04-08 15:02:00,73.6,58.4,29.68,SSW,202,8.7,8.7,59,0.00,,---,0.00,VWS V14.01,2013-04-08 20:02:00,
2013-04-08 15:08:00,73.8,58.1,29.68,SSW,202,11.0,11.0,58,0.00,,---,0.00,VWS V14.01,2013-04-08 20:08:00,
2013-04-08 15:14:00,74.7,57.4,29.68,West,270,6.0,7.8,55,0.00,,---,0.00,VWS V14.01,2013-04-08 20:14:00,
2013-04-08 15:19:00,74.3,57.1,29.68,South,180,5.8,8.7,55,0.00,,---,0.00,VWS V14.01,2013-04-08 20:19:00,
2013-04-08 15:25:00,74.7,57.9,29.68,SSW,202,6.5,12.8,56,0.00,,---,0.00,VWS V14.01,2013-04-08 20:25:00,
2013-04-08 15:30:00,74.8,58.1,29.68,SSW,202,5.4,6.3,56,0.00,,---,0.00,VWS V14.01,2013-04-08 20:30:00,
2013-04-08 15:35:00,75.0,57.8,29.68,SSE,158,8.7,10.7,55,0.00,,---,0.00,VWS V14.01,2013-04-08 20:35:00,
2013-04-08 15:41:00,74.7,57.9,29.68,SSE,158,7.6,12.1,56,0.00,,---,0.00,VWS V14.01,2013-04-08 20:41:00,
2013-04-08 15:47:00,73.9,58.2,29.65,SE,135,9.6,9.8,58,0.00,,---,0.00,VWS V14.01,2013-04-08 20:47:00,
2013-04-08 15:53:00,73.6,58.4,29.65,South,180,8.7,8.7,59,0.00,,---,0.00,VWS V14.01,2013-04-08 20:53:00,
2013-04-08 15:58:00,73.8,58.5,29.68,SSE,158,12.3,14.1,59,0.00,,---,0.00,VWS V14.01,2013-04-08 20:58:00,
2013-04-08 16:04:00,74.5,59.7,29.68,SSW,202,7.4,7.4,60,0.00,,---,0.00,VWS V14.01,2013-04-08 21:04:00,
2013-04-08 16:09:00,74.5,59.7,29.68,SE,135,12.1,14.8,60,0.00,,---,0.00,VWS V14.01,2013-04-08 21:09:00,
2013-04-08 16:15:00,72.0,59.1,29.68,SSE,158,9.6,15.7,64,0.00,,---,0.00,VWS V14.01,2013-04-08 21:15:00,
2013-04-08 16:21:00,71.4,59.5,29.68,SSE,158,6.3,13.2,66,0.00,,---,0.00,VWS V14.01,2013-04-08 21:21:00,
2013-04-08 16:26:00,71.6,59.7,29.68,SSE,158,9.4,13.9,66,0.00,,---,0.00,VWS V14.01,2013-04-08 21:26:00,
2013-04-08 16:32:00,72.1,60.2,29.68,South,180,6.3,11.4,66,0.00,,---,0.00,VWS V14.01,2013-04-08 21:32:00,
2013-04-08 16:37:00,71.6,59.7,29.68,ESE,112,6.5,17.2,66,0.00,,---,0.00,VWS V14.01,2013-04-08 21:37:00,
2013-04-08 16:43:00,71.4,60.3,29.68,SE,135,3.8,7.6,68,0.00,,---,0.00,VWS V14.01,2013-04-08 21:43:00,
2013-04-08 16:49:00,70.2,59.5,29.68,SE,135,16.6,17.9,69,0.00,,---,0.00,VWS V14.01,2013-04-08 21:49:00,
2013-04-08 16:55:00,70.2,59.5,29.68,ESE,112,8.1,14.3,69,0.00,,---,0.00,VWS V14.01,2013-04-08 21:55:00,
2013-04-08 17:00:00,69.6,59.4,29.68,SE,135,22.2,22.2,70,0.00,,---,0.00,VWS V14.01,2013-04-08 22:00:00,
2013-04-08 17:05:00,70.0,60.2,29.68,South,180,10.7,10.7,71,0.00,,---,0.00,VWS V14.01,2013-04-08 22:05:00,
2013-04-08 17:11:00,69.6,59.8,29.68,SSW,202,8.1,17.5,71,0.00,,---,0.00,VWS V14.01,2013-04-08 22:11:00,
2013-04-08 17:17:00,69.1,59.7,29.68,SE,135,13.0,15.4,72,0.00,,---,0.00,VWS V14.01,2013-04-08 22:17:00,
2013-04-08 17:22:00,68.9,59.9,29.68,SE,135,7.8,8.5,73,0.00,,---,0.00,VWS V14.01,2013-04-08 22:22:00,
2013-04-08 17:28:00,68.7,60.1,29.65,SE,135,8.5,8.5,74,0.00,,---,0.00,VWS V14.01,2013-04-08 22:28:00,
2013-04-08 17:33:00,68.4,59.8,29.65,SSE,158,10.7,19.5,74,0.00,,---,0.00,VWS V14.01,2013-04-08 22:33:00,
2013-04-08 17:38:00,68.4,60.1,29.65,SSE,158,10.1,10.1,75,0.00,,---,0.00,VWS V14.01,2013-04-08 22:38:00,
2013-04-08 17:43:00,68.4,60.1,29.68,SE,135,6.0,13.0,75,0.00,,---,0.00,VWS V14.01,2013-04-08 22:43:00,
2013-04-08 17:49:00,68.4,60.1,29.68,SSE,158,13.2,13.2,75,0.00,,---,0.00,VWS V14.01,2013-04-08 22:49:00,
2013-04-08 17:54:00,68.5,60.3,29.68,SSE,158,18.8,18.8,75,0.00,,---,0.00,VWS V14.01,2013-04-08 22:54:00,
2013-04-08 18:00:00,68.4,60.1,29.68,SSE,158,9.6,10.7,75,0.00,,---,0.00,VWS V14.01,2013-04-08 23:00:00,
2013-04-08 18:06:00,68.4,60.5,29.68,SE,135,11.4,16.1,76,0.00,,---,0.00,VWS V14.01,2013-04-08 23:06:00,
2013-04-08 18:11:00,68.5,60.7,29.68,SSE,158,13.9,13.9,76,0.00,,---,0.00,VWS V14.01,2013-04-08 23:11:00,
2013-04-08 18:17:00,68.7,60.5,29.68,SSE,158,7.8,10.3,75,0.00,,---,0.00,VWS V14.01,2013-04-08 23:17:00,
2013-04-08 18:22:00,68.7,60.5,29.68,ESE,112,6.5,12.1,75,0.00,,---,0.00,VWS V14.01,2013-04-08 23:22:00,
2013-04-08 18:28:00,68.9,60.7,29.68,SSE,158,18.1,18.1,75,0.00,,---,0.00,VWS V14.01,2013-04-08 23:28:00,
2013-04-08 18:34:00,68.5,60.3,29.68,SE,135,18.8,18.8,75,0.00,,---,0.00,VWS V14.01,2013-04-08 23:34:00,
2013-04-08 18:39:00,68.5,60.3,29.68,SE,135,5.4,19.7,75,0.00,,---,0.00,VWS V14.01,2013-04-08 23:39:00,
2013-04-08 18:45:00,68.5,60.3,29.68,SE,135,12.1,12.1,75,0.00,,---,0.00,VWS V14.01,2013-04-08 23:45:00,
2013-04-08 18:50:00,68.5,60.3,29.68,SSE,158,15.4,15.4,75,0.00,,---,0.00,VWS V14.01,2013-04-08 23:50:00,
2013-04-08 18:56:00,68.5,60.3,29.68,SSE,158,10.1,13.2,75,0.00,,---,0.00,VWS V14.01,2013-04-08 23:56:00,
2013-04-08 19:02:00,68.7,60.5,29.68,SSE,158,6.3,10.1,75,0.00,,---,0.00,VWS V14.01,2013-04-09 00:02:00,
2013-04-08 19:07:00,68.7,60.5,29.68,SSE,158,3.4,11.0,75,0.00,,---,0.00,VWS V14.01,2013-04-09 00:07:00,
2013-04-08 19:13:00,68.7,60.5,29.68,SE,135,4.9,9.6,75,0.00,,---,0.00,VWS V14.01,2013-04-09 00:13:00,
2013-04-08 19:19:00,68.5,59.9,29.68,SSE,158,6.3,14.8,74,0.00,,---,0.00,VWS V14.01,2013-04-09 00:19:00,
2013-04-08 19:25:00,68.5,59.9,29.68,ESE,112,12.8,12.8,74,0.00,,---,0.00,VWS V14.01,2013-04-09 00:25:00,
2013-04-08 19:30:00,68.5,59.9,29.68,ESE,112,7.4,12.1,74,0.00,,---,0.00,VWS V14.01,2013-04-09 00:30:00,
2013-04-08 19:35:00,68.5,59.9,29.68,SE,135,11.0,11.0,74,0.00,,---,0.00,VWS V14.01,2013-04-09 00:35:00,
2013-04-08 19:41:00,68.4,59.8,29.68,SE,135,8.1,9.4,74,0.00,,---,0.00,VWS V14.01,2013-04-09 00:41:00,
2013-04-08 19:47:00,68.4,59.8,29.68,SE,135,10.3,12.8,74,0.00,,---,0.00,VWS V14.01,2013-04-09 00:47:00,
2013-04-08 19:52:00,68.4,60.1,29.68,NE,45,8.1,8.1,75,0.00,,---,0.00,VWS V14.01,2013-04-09 00:52:00,
2013-04-08 19:58:00,68.2,60.0,29.68,SE,135,9.8,17.7,75,0.00,,---,0.00,VWS V14.01,2013-04-09 00:58:00,
2013-04-08 20:04:00,68.2,60.0,29.68,SSE,158,6.0,10.1,75,0.00,,---,0.00,VWS V14.01,2013-04-09 01:04:00,
2013-04-08 20:09:00,68.2,60.0,29.68,SE,135,6.9,11.4,75,0.00,,---,0.00,VWS V14.01,2013-04-09 01:09:00,
2013-04-08 20:14:00,68.2,60.0,29.68,ESE,112,5.4,9.8,75,0.00,,---,0.00,VWS V14.01,2013-04-09 01:14:00,
2013-04-08 20:20:00,68.0,59.8,29.68,SE,135,12.1,12.1,75,0.00,,---,0.00,VWS V14.01,2013-04-09 01:20:00,
2013-04-08 20:26:00,68.0,59.8,29.68,SE,135,9.8,13.2,75,0.00,,---,0.00,VWS V14.01,2013-04-09 01:26:00,
2013-04-08 20:31:00,68.0,59.8,29.68,SE,135,11.0,13.9,75,0.00,,---,0.00,VWS V14.01,2013-04-09 01:31:00,
2013-04-08 20:37:00,68.0,59.8,29.68,SSE,158,7.2,8.1,75,0.00,,---,0.00,VWS V14.01,2013-04-09 01:37:00,
2013-04-08 20:42:00,68.0,59.8,29.68,SE,135,4.3,9.0,75,0.00,,---,0.00,VWS V14.01,2013-04-09 01:42:00,
2013-04-08 20:48:00,68.2,59.6,29.68,East,90,8.7,8.7,74,0.00,,---,0.00,VWS V14.01,2013-04-09 01:48:00,
2013-04-08 20:54:00,68.2,60.0,29.68,SE,135,2.9,8.5,75,0.00,,---,0.00,VWS V14.01,2013-04-09 01:54:00,
2013-04-08 20:59:00,68.0,59.8,29.68,South,180,9.6,12.5,75,0.00,,---,0.00,VWS V14.01,2013-04-09 01:59:00,
2013-04-08 21:05:00,68.0,59.8,29.68,ESE,112,10.3,10.3,75,0.00,,---,0.00,VWS V14.01,2013-04-09 02:05:00,
2013-04-08 21:10:00,68.2,60.0,29.68,SSE,158,12.1,15.2,75,0.00,,---,0.00,VWS V14.01,2013-04-09 02:10:00,
2013-04-08 21:16:00,68.4,59.8,29.68,SE,135,7.8,8.7,74,0.00,,---,0.00,VWS V14.01,2013-04-09 02:16:00,
2013-04-08 21:21:00,68.5,59.9,29.68,SE,135,10.3,10.3,74,0.00,,---,0.00,VWS V14.01,2013-04-09 02:21:00,
2013-04-08 21:26:00,68.7,59.7,29.68,South,180,7.8,12.1,73,0.00,,---,0.00,VWS V14.01,2013-04-09 02:26:00,
2013-04-08 21:31:00,68.7,59.7,29.68,ESE,112,11.0,11.0,73,0.00,,---,0.00,VWS V14.01,2013-04-09 02:31:00,
2013-04-08 21:37:00,68.7,59.3,29.68,South,180,4.7,7.8,72,0.00,,---,0.00,VWS V14.01,2013-04-09 02:37:00,
2013-04-08 21:42:00,68.7,59.3,29.68,South,180,7.6,8.7,72,0.00,,---,0.00,VWS V14.01,2013-04-09 02:42:00,
2013-04-08 21:48:00,68.7,59.3,29.68,East,90,4.0,8.1,72,0.00,,---,0.00,VWS V14.01,2013-04-09 02:48:00,
2013-04-08 21:54:00,68.7,59.3,29.68,South,180,0.9,5.6,72,0.00,,---,0.00,VWS V14.01,2013-04-09 02:54:00,
2013-04-08 21:59:00,68.7,59.3,29.68,South,180,2.7,10.3,72,0.00,,---,0.00,VWS V14.01,2013-04-09 02:59:00,
2013-04-08 22:04:00,68.7,59.3,29.68,SSE,158,5.4,11.0,72,0.00,,---,0.00,VWS V14.01,2013-04-09 03:04:00,
2013-04-08 22:10:00,68.7,59.3,29.68,SSE,158,5.8,8.5,72,0.00,,---,0.00,VWS V14.01,2013-04-09 03:10:00,
2013-04-08 22:14:00,68.9,59.5,29.68,South,180,8.1,11.0,72,0.00,,---,0.00,VWS V14.01,2013-04-09 03:14:00,
2013-04-08 22:20:00,68.9,59.5,29.68,SSW,202,8.5,12.8,72,0.00,,---,0.00,VWS V14.01,2013-04-09 03:20:00,
2013-04-08 22:25:00,69.1,59.7,29.68,South,180,6.5,6.5,72,0.00,,---,0.00,VWS V14.01,2013-04-09 03:25:00,
2013-04-08 22:31:00,69.1,59.7,29.68,SSE,158,7.2,10.3,72,0.00,,---,0.00,VWS V14.01,2013-04-09 03:31:00,
2013-04-08 22:36:00,69.1,59.7,29.68,SSW,202,14.1,14.1,72,0.00,,---,0.00,VWS V14.01,2013-04-09 03:36:00,
2013-04-08 22:42:00,68.9,59.5,29.68,SE,135,8.1,8.1,72,0.00,,---,0.00,VWS V14.01,2013-04-09 03:42:00,
2013-04-08 22:47:00,68.9,59.5,29.68,SSE,158,7.2,12.3,72,0.00,,---,0.00,VWS V14.01,2013-04-09 03:47:00,
2013-04-08 22:52:00,68.9,59.5,29.68,SSW,202,8.1,8.7,72,0.00,,---,0.00,VWS V14.01,2013-04-09 03:52:00,
2013-04-08 22:57:00,68.7,59.3,29.65,South,180,4.3,12.3,72,0.00,,---,0.00,VWS V14.01,2013-04-09 03:57:00,
2013-04-08 23:00:00,68.7,59.3,29.65,SSE,158,3.8,4.9,72,0.00,,---,0.00,VWS V14.01,2013-04-09 04:00:00,
2013-04-08 23:02:00,68.7,59.3,29.65,SE,135,5.6,8.5,72,0.00,,---,0.00,VWS V14.01,2013-04-09 04:02:00,
2013-04-08 23:07:00,68.5,59.2,29.65,SE,135,3.4,5.8,72,0.00,,---,0.00,VWS V14.01,2013-04-09 04:07:00,
2013-04-08 23:11:00,68.5,59.5,29.65,SSE,158,5.6,5.6,73,0.00,,---,0.00,VWS V14.01,2013-04-09 04:11:00,
2013-04-08 23:17:00,68.5,59.5,29.65,SSE,158,6.5,7.6,73,0.00,,---,0.00,VWS V14.01,2013-04-09 04:17:00,
2013-04-08 23:22:00,68.4,59.4,29.65,SE,135,4.9,5.4,73,0.00,,---,0.00,VWS V14.01,2013-04-09 04:22:00,
2013-04-08 23:27:00,68.2,59.6,29.68,South,180,7.6,7.8,74,0.00,,---,0.00,VWS V14.01,2013-04-09 04:27:00,
2013-04-08 23:32:00,68.0,59.4,29.68,South,180,1.1,7.8,74,0.00,,---,0.00,VWS V14.01,2013-04-09 04:32:00,
2013-04-08 23:39:00,67.6,59.8,29.68,SSE,158,6.3,9.8,76,0.00,,---,0.00,VWS V14.01,2013-04-09 04:39:00,
2013-04-08 23:45:00,67.6,60.2,29.68,SE,135,9.2,10.1,77,0.00,,---,0.00,VWS V14.01,2013-04-09 04:45:00,
2013-04-08 23:50:00,67.5,60.0,29.68,SE,135,6.0,8.5,77,0.00,,---,0.00,VWS V14.01,2013-04-09 04:50:00,
2013-04-08 23:57:00,67.5,60.4,29.68,SSW,202,5.6,5.8,78,0.00,,---,0.00,VWS V14.01,2013-04-09 04:57:00,